EDT,Max TemperatureF,Mean TemperatureF,Min TemperatureF,Max Dew PointF,MeanDew PointF,Min DewpointF,Max Humidity, Mean Humidity, Min Humidity, Max Sea Level PressureIn, Mean Sea Level PressureIn, Min Sea Level PressureIn, Max VisibilityMiles, Mean VisibilityMiles, Min VisibilityMiles, Max Wind SpeedMPH, Mean Wind SpeedMPH, Max Gust SpeedMPH,PrecipitationIn, CloudCover, Events, WindDirDegrees
2013-10-1,75,60,45,54,49,43,100,75,36,29.97,29.90,29.83,10,9,1,9,3,16,0.00,1,,325
2013-10-2,80,66,53,57,55,51,93,69,45,29.91,29.84,29.78,10,10,10,10,4,17,0.00,0,,293
2013-10-3,73,62,51,56,50,47,89,67,38,30.06,30.01,29.93,10,10,8,8,3,,0.00,0,,296
2013-10-4,68,57,46,54,51,45,93,76,52,30.08,30.05,30.03,10,10,10,7,3,,0.00,3,Rain,321
2013-10-5,64,60,55,54,50,43,87,71,60,30.12,30.09,30.06,10,10,10,6,2,,0.00,8,,26
2013-10-6,57,52,48,53,48,40,100,89,62,30.26,30.21,30.13,10,4,2,9,4,,0.17,8,Rain,51
2013-10-7,73,62,53,66,59,52,100,92,78,30.14,29.94,29.78,10,4,0,13,4,25,0.39,8,Fog-Rain,142
2013-10-8,63,52,41,48,41,36,89,64,39,30.38,30.15,29.87,10,10,10,21,8,28,0.00,0,,311
2013-10-9,62,48,35,43,38,33,93,75,39,30.48,30.42,30.38,10,10,10,7,4,,0.00,0,,331
2013-10-10,61,49,37,49,43,35,97,79,49,30.36,30.28,30.18,10,10,10,6,3,,0.00,0,,321
2013-10-11,68,54,43,50,47,42,97,77,48,30.18,30.15,30.12,10,10,10,7,3,,0.00,0,,328
2013-10-12,55,50,44,51,48,42,94,86,80,30.42,30.33,30.17,10,9,6,9,5,,0.00,5,,36
2013-10-13,57,48,39,48,42,38,100,86,62,30.46,30.42,30.40,10,7,0,7,4,,0.00,3,Fog,326
2013-10-14,64,50,36,48,41,35,100,78,43,30.40,30.32,30.23,10,9,1,7,2,,0.00,2,,248
2013-10-15,63,56,50,52,50,47,100,81,63,30.28,30.23,30.20,10,10,9,7,3,,0.00,7,,65
2013-10-16,62,56,51,52,50,43,100,88,52,30.19,30.08,29.91,10,6,0,5,1,,0.00,6,Fog,60
2013-10-17,73,62,50,55,50,43,100,82,34,29.90,29.82,29.69,10,5,0,6,1,,0.01,4,Fog,317
2013-10-18,66,57,46,58,49,40,100,77,46,29.87,29.69,29.58,10,8,0,12,3,25,0.13,4,Fog-Rain,222
2013-10-19,64,52,39,45,41,36,89,65,41,29.95,29.87,29.75,10,10,10,7,2,,0.00,1,,176
2013-10-20,61,52,43,46,37,31,90,59,35,29.98,29.80,29.67,10,10,10,15,4,24,0.00,1,Rain,272
2013-10-21,64,50,37,46,39,33,86,65,40,30.09,30.03,29.97,10,10,10,7,2,,0.00,0,,258
2013-10-22,61,52,43,49,43,34,90,74,61,29.96,29.80,29.70,10,10,10,8,2,,0.00,3,,221
2013-10-23,53,43,33,35,32,29,89,61,41,29.77,29.67,29.58,10,10,10,7,3,,0.02,1,,295
2013-10-24,51,44,37,32,28,25,76,54,39,29.85,29.73,29.62,10,10,10,12,4,24,0.00,4,,268
2013-10-25,48,41,32,31,27,22,85,63,39,30.11,29.99,29.86,10,10,10,15,5,25,0.00,2,,304
2013-10-26,50,38,26,32,26,23,88,60,36,30.12,30.00,29.85,10,10,10,8,3,,0.00,3,,189
2013-10-27,55,47,39,36,31,26,76,57,38,30.02,29.86,29.77,10,10,10,10,5,20,0.00,5,Rain,239
2013-10-28,55,44,32,33,28,21,82,60,40,30.34,30.13,30.02,10,10,10,22,4,32,0.00,2,,308
2013-10-29,46,34,21,25,20,15,88,60,28,30.44,30.39,30.35,10,10,10,7,3,,0.00,0,,320
2013-10-30,48,37,26,32,27,20,88,69,52,30.35,30.25,30.18,10,10,10,9,4,,0.00,3,,309
2013-10-31,57,42,28,56,41,26,100,91,82,30.22,30.02,29.76,10,5,0,8,1,,0.16,7,Fog-Rain,277